Location: Newark
(30.8333°N, 61.6667°E)
Time: 09:19:14
(UTC+00:00)

Envisat - Visible Passes

Search period start: 20 July 2019 00:00
Search period end: 30 July 2019 00:00
Orbit: 764 x 766 km, 98.1° (Epoch: 20 July)

Date Brightness Start Highest point End Pass type
(mag) Time Alt. Az. Time Alt. Az. Time Alt. Az.
21 Jul 5.7 15:25:43 10° SW 15:29:12 19° W 15:32:42 10° NW visible
26 Jul 5.9 15:41:30 10° WSW 15:43:35 12° W 15:45:40 10° WNW visible
29 Jul 5.7 15:29:04 10° SW 15:32:15 17° W 15:35:26 10° NW visible
